Motorsport-Total.com @Twitter

Zwitschern mit viel PS!

Die wichtigsten Top-News erhalten Sie vorab über unseren Twitter-Channel @MST_Hot! Alle weiteren News aus unseren Rubriken finden Sie in unseren Twitter-Channels. Wann dürfen wir Ihnen etwas zwitschern?
Alle Twitter-Channels
Motorsport-Marktplatz
Tony Kart Rotax Junior Equipment 2017
VB €5.500,00
Tony Kart Rotax Junior Equipment 2017 - Verkaufe mein komplettes Rotax Junior Equipment- 2017 Tony Chassis inkl. :
2017 Tony Kart Chassis - [...]
 
ANZEIGE
 
 
ANZEIGE
 
ANZEIGE
 
 
Apps zu Formel 1, MotoGP, DTM und Co. für Android, iOS und Windows Phone
Tests: Zeiten, Termine, Statistik

Exklusives "Testcenter"

Im "Testcenter" finden Sie Zeiten, Termine und unzählige Statistiken zu den Testfahrten in der Formel 1!
Zum Testcenter
Aktuelle Top-Formel-1-Videos
Sie sind hier: Home > Formel 1 > Ergebnisse > Singapur 2017

 GP Singapur in Singapur / Qualifying

Session-Informationen im Überblick
Datum 16. September 2017 Wetter heiter / klar
Zeit (MESZ) 15:00 Uhr Lufttemp. 28°C
Ortszeit 21:00 Uhr Luftfeucht. 70%
Teilnehmer 20 Luftdruck 1.010 mBar
Rekord Rennen 1:45.599 Minuten Asphalt 33°C
Rekord Qualifying 1:42.584 Minuten Wind 1 m/s, Südosten
Einzel-Sessions
Gesamtklassement
Klassement der dritten Qualifyingsession
Klassement der zweiten Qualifyingsession
Klassement der ersten Qualifyingsession

Gesamtklassement

Pos. Nr. Fahrer Team Zeit Abstand auf V. Rnd.
1 5 S. Vettel Ferrari 1:39.491     6
2 33 M. Verstappen Red Bull 1:39.814 +0:00.323 +0:00.323 6
3 3 D. Ricciardo Red Bull 1:39.840 +0:00.349 +0:00.026 6
4 7 K. Räikkönen Ferrari 1:40.069 +0:00.578 +0:00.229 6
5 44 L. Hamilton Mercedes 1:40.126 +0:00.635 +0:00.057 6
6 77 V. Bottas Mercedes 1:40.810 +0:01.319 +0:00.684 6
7 27 N. Hülkenberg Renault 1:41.013 +0:01.522 +0:00.203 6
8 14 F. Alonso McLaren 1:41.179 +0:01.688 +0:00.166 6
9 2 S. Vandoorne McLaren 1:41.398 +0:01.907 +0:00.219 6
10 55 C. Sainz Toro Rosso 1:42.056 +0:02.565 +0:00.658 6
11 30 J. Palmer Renault 1:42.107     6
12 11 S. Perez Force India 1:42.246 +0:00.139 +0:00.139 5
13 26 D. Kwjat Toro Rosso 1:42.338 +0:00.231 +0:00.092 6
14 31 E. Ocon Force India 1:42.760 +0:00.653 +0:00.422 6
15 8 R. Grosjean Haas F1 1:43.883 +0:01.776 +0:01.123 5
16 20 K. Magnussen Haas F1 1:43.756     8
17 19 F. Massa Williams 1:44.014 +0:00.258 +0:00.258 6
18 18 L. Stroll Williams 1:44.728 +0:00.972 +0:00.714 9
19 94 P. Wehrlein Sauber 1:45.059 +0:01.303 +0:00.331 9
20 9 M. Ericsson Sauber 1:45.570 +0:01.814 +0:00.511 6
  107-Prozent-Zeit 1:49.150
auf V. = auf Vordermann, Rnd. = Runden

 

Klassement der dritten Qualifyingsession

Pos. Nr. Fahrer Team Zeit Abstand auf V. Rnd.
1 5 S. Vettel Ferrari 1:39.491     6
2 33 M. Verstappen Red Bull 1:39.814 +0:00.323 +0:00.323 6
3 3 D. Ricciardo Red Bull 1:39.840 +0:00.349 +0:00.026 6
4 7 K. Räikkönen Ferrari 1:40.069 +0:00.578 +0:00.229 6
5 44 L. Hamilton Mercedes 1:40.126 +0:00.635 +0:00.057 6
6 77 V. Bottas Mercedes 1:40.810 +0:01.319 +0:00.684 6
7 27 N. Hülkenberg Renault 1:41.013 +0:01.522 +0:00.203 6
8 14 F. Alonso McLaren 1:41.179 +0:01.688 +0:00.166 6
9 2 S. Vandoorne McLaren 1:41.398 +0:01.907 +0:00.219 6
10 55 C. Sainz Toro Rosso 1:42.056 +0:02.565 +0:00.658 6
  107-Prozent-Zeit 1:46.455
auf V. = auf Vordermann, Rnd. = Runden

 

Klassement der zweiten Qualifyingsession

Pos. Nr. Fahrer Team Zeit Abstand auf V. Rnd.
1 33 M. Verstappen Red Bull 1:40.332     6
2 3 D. Ricciardo Red Bull 1:40.385 +0:00.053 +0:00.053 6
3 7 K. Räikkönen Ferrari 1:40.525 +0:00.193 +0:00.140 6
4 5 S. Vettel Ferrari 1:40.529 +0:00.197 +0:00.004 6
5 44 L. Hamilton Mercedes 1:40.577 +0:00.245 +0:00.048 6
6 2 S. Vandoorne McLaren 1:41.227 +0:00.895 +0:00.650 5
7 27 N. Hülkenberg Renault 1:41.277 +0:00.945 +0:00.050 6
8 77 V. Bottas Mercedes 1:41.409 +0:01.077 +0:00.132 6
9 14 F. Alonso McLaren 1:41.442 +0:01.110 +0:00.033 6
10 55 C. Sainz Toro Rosso 1:41.826 +0:01.494 +0:00.384 6
11 30 J. Palmer Renault 1:42.107 +0:01.775 +0:00.281 6
12 11 S. Perez Force India 1:42.246 +0:01.914 +0:00.139 5
13 26 D. Kwjat Toro Rosso 1:42.338 +0:02.006 +0:00.092 6
14 31 E. Ocon Force India 1:42.760 +0:02.428 +0:00.422 6
15 8 R. Grosjean Haas F1 1:43.883 +0:03.551 +0:01.123 5
  107-Prozent-Zeit 1:47.355
auf V. = auf Vordermann, Rnd. = Runden

 

Klassement der ersten Qualifyingsession

Pos. Nr. Fahrer Team Zeit Abstand auf V. Rnd.
1 33 M. Verstappen Red Bull 1:42.010     5
2 3 D. Ricciardo Red Bull 1:42.063 +0:00.053 +0:00.053 5
3 14 F. Alonso McLaren 1:42.086 +0:00.076 +0:00.023 8
4 55 C. Sainz Toro Rosso 1:42.176 +0:00.166 +0:00.090 8
5 2 S. Vandoorne McLaren 1:42.222 +0:00.212 +0:00.046 8
6 44 L. Hamilton Mercedes 1:42.455 +0:00.445 +0:00.233 5
7 30 J. Palmer Renault 1:42.472 +0:00.462 +0:00.017 6
8 26 D. Kwjat Toro Rosso 1:42.544 +0:00.534 +0:00.072 8
9 27 N. Hülkenberg Renault 1:42.586 +0:00.576 +0:00.042 6
10 77 V. Bottas Mercedes 1:43.137 +0:01.127 +0:00.551 4
11 7 K. Räikkönen Ferrari 1:43.328 +0:01.318 +0:00.191 6
12 5 S. Vettel Ferrari 1:43.336 +0:01.326 +0:00.008 6
13 11 S. Perez Force India 1:43.594 +0:01.584 +0:00.258 3
14 31 E. Ocon Force India 1:43.626 +0:01.616 +0:00.032 5
15 8 R. Grosjean Haas F1 1:43.627 +0:01.617 +0:00.001 8
16 20 K. Magnussen Haas F1 1:43.756 +0:01.746 +0:00.129 8
17 19 F. Massa Williams 1:44.014 +0:02.004 +0:00.258 6
18 18 L. Stroll Williams 1:44.728 +0:02.718 +0:00.714 9
19 94 P. Wehrlein Sauber 1:45.059 +0:03.049 +0:00.331 9
20 9 M. Ericsson Sauber 1:45.570 +0:03.560 +0:00.511 6
  107-Prozent-Zeit 1:49.150
auf V. = auf Vordermann, Rnd. = Runden

 

 

 
Nach oben